Details for United Airlines at KLAX




Go Back


Latest METAR
Local Time

KLAX 180553Z 25005KT 10SM BKN010 22/19 A3005 RMK AO2 SLP171 T02220194 10244 20222 51014
17/08/2018, 23:27:08

Description
Results
United Airlines Logo
Number of Pilots based at KLAX
0 Pilots Based here
Number of United Airlines Flights Departed from KLAX
1 Flights Departed
Number of United Airlines Flights Arrived at KLAX
2 Flights Arrived
Number of United Airlines Schedules Departing from KLAX
210 Schedules
Number of United Airlines Schedules Arriving at KLAX
222 Schedules
Number of United Airlines Schedules Departing from KLAX availible today
113 Schedules Today
Number of United Airlines Schedules Arriving at KLAX availible today
114 Schedules Today
Average Landing Rate at KLAX
-221 fpm
United Airlines Average Landing Rate at KLAX
-145 fpm
Total Fuel Purchased at KLAX by United Airlines
2,664.86 kgs / 5,874.95 lbs

Pilots Based at KLAX


Pilot ID
Pilot Name
Pilot Rank
No. of Flights
No. of Flying Hours
There are no pilots assigned to this hub!   Will you be the first?
Content